Location: Trout Lake
(45.9980°N, 121.5270°W)
Time: 18:40:49
(UTC-08:00)

Cosmos 1553 Rocket - Pass Details

Date: 06 December 2023
Orbit: 941 x 1007 km, 82.9° (Epoch: 22 February)

Event Time Altitude Azimuth Distance (km) Brightness Sun altitude
Rises 18:39:39 0° 351° (N) 3,720 7.1 -23.2°
Reaches altitude 10° 18:42:12 10° 351° (N) 2,759 6.4 -23.6°
Maximum altitude 18:48:32 90° 37° (NE) 983 3.9 -24.7°
Drops below altitude 10° 18:54:44 10° 174° (S) 2,693 6.3 -25.8°
Sets 18:57:12 0° 174° (S) 3,627 7.0 -26.2°
